This demonstration page uses our WeatherBlox Daily Observations layout. Learn more.

Left ArrowRight Arrow

Hourly Observations for January 12, 2015

Temp ( °F °C ) Dew Point ( °F °C ) Humidity (%) Winds ( mph kmh ) Pressure ( in mb ) Visibility ( mi km ) Precip ( " mm )
12:15 am 00:15 Cloudy 32 0 N/A N/A S 5 7 30.27 1025 3 4.82802 N/A
12:35 am 00:35 Cloudy 32 0 N/A N/A SSW 7 11 30.27 1025 4 6.43736 N/A
12:55 am 00:55 Cloudy 32 0 N/A N/A SSW 5 7 30.27 1025 3 4.82802 N/A
1:16 am 01:16 Cloudy 32 0 N/A N/A SSW 5 7 30.27 1025 3 4.82802 N/A
1:35 am 01:35 Cloudy 32 0 N/A N/A S 5 7 30.27 1025 2.5 4.02335 N/A
1:55 am 01:55 Cloudy 32 0 N/A N/A S 5 7 30.27 1025 3 4.82802 N/A
2:15 am 02:15 Cloudy 32 0 N/A N/A SSW 3 6 30.27 1025 2.5 4.02335 N/A
2:35 am 02:35 Cloudy 32 0 N/A N/A Calm 30.27 1025 1.5 2.41401 N/A
2:55 am 02:55 Cloudy 32 0 N/A N/A Calm 30.27 1025 1.75 2.816345 N/A
3:15 am 03:15 Cloudy 32 0 N/A N/A S 3 6 30.27 1025 1.5 2.41401 N/A
3:35 am 03:35 Cloudy 32 0 N/A N/A S 3 6 30.27 1025 1.5 2.41401 N/A
3:56 am 03:56 Cloudy 32 0 N/A N/A Calm 30.27 1025 1.5 2.41401 N/A
4:15 am 04:15 Cloudy 32 0 N/A N/A Calm 30.27 1025 1.25 2.011675 N/A
4:35 am 04:35 Cloudy 32 0 N/A N/A Calm 30.27 1025 1.25 2.011675 N/A
4:55 am 04:55 Cloudy 32 0 N/A N/A Calm 30.27 1025 1 1.60934 N/A
5:15 am 05:15 Cloudy 32 0 N/A N/A Calm 30.24 1024 1 1.60934 N/A
5:35 am 05:35 Cloudy 32 0 N/A N/A Calm 30.24 1024 0.75 1.207005 N/A
5:55 am 05:55 Cloudy 32 0 N/A N/A Calm 30.24 1024 0.75 1.207005 N/A
6:15 am 06:15 Cloudy 32 0 N/A N/A Calm 30.24 1024 0.75 1.207005 N/A
6:36 am 06:36 Cloudy 32 0 N/A N/A Calm 30.24 1024 0.75 1.207005 N/A
6:55 am 06:55 Cloudy 32 0 N/A N/A N 3 6 30.24 1024 1.25 2.011675 N/A
7:15 am 07:15 Cloudy 32 0 N/A N/A WNW 3 6 30.27 1025 2 3.21868 N/A
7:35 am 07:35 Cloudy 32 0 N/A N/A NNW 5 7 30.24 1024 1.75 2.816345 N/A
7:55 am 07:55 Cloudy 32 0 N/A N/A NNW 6 9 30.27 1025 2.5 4.02335 N/A
8:15 am 08:15 Cloudy 32 0 N/A N/A N 8 13 30.27 1025 4 6.43736 N/A
8:35 am 08:35 Cloudy 32 0 N/A N/A N 7 11 30.27 1025 5 8.0467 N/A
8:55 am 08:55 Cloudy 32 0 N/A N/A N 7 11 30.3 1026 4 6.43736 N/A
9:15 am 09:15 Cloudy 32 0 N/A N/A N 10 17 30.3 1026 5 8.0467 N/A
9:35 am 09:35 Cloudy 32 0 N/A N/A N 10 17 30.3 1026 2.5 4.02335 N/A
9:55 am 09:55 Cloudy 32 0 N/A N/A N 9 15 30.3 1026 4 6.43736 N/A
10:15 am 10:15 Cloudy 32 0 N/A N/A N 15 24 30.3 1026 4 6.43736 N/A
10:35 am 10:35 Mostly Cloudy 32 0 32 0 100 100 N 15 24 30.33 1027 7 11.26538 N/A
10:55 am 10:55 Mostly Cloudy 32 0 32 0 100 100 N 15 24 30.33 1027 7 11.26538 N/A
11:15 am 11:15 Cloudy 32 0 32 0 100 100 N 16 26 30.33 1027 7 11.26538 N/A
11:35 am 11:35 Cloudy 32 0 32 0 100 100 N 14 22 30.33 1027 10 16.0934 N/A
11:55 am 11:55 Cloudy 32 0 32 0 100 100 N 16 26 30.33 1027 7 11.26538 N/A
12:15 pm 12:15 Cloudy 32 0 32 0 100 100 N 14 22 30.33 1027 7 11.26538 N/A
12:35 pm 12:35 Cloudy 32 0 32 0 100 100 N 15 24 30.33 1027 7 11.26538 N/A
12:56 pm 12:56 Cloudy 32 0 32 0 100 100 N 14 22 30.33 1027 7 11.26538 N/A
1:15 pm 13:15 Cloudy 32 0 30 -1 93 93 N 18 30 30.33 1027 7 11.26538 N/A
1:35 pm 13:35 Cloudy 32 0 25 -4 75 75 N 20 31 30.33 1027 7 11.26538 N/A
1:55 pm 13:55 Mostly Cloudy 32 0 23 -5 69 69 N 16 26 30.36 1028 7 11.26538 N/A
2:15 pm 14:15 Mostly Cloudy 32 0 23 -5 69 69 N 14 22 30.36 1028 7 11.26538 N/A
2:36 pm 14:36 Cloudy 30 -1 21 -6 69 69 N 20 31 30.36 1028 7 11.26538 N/A
2:55 pm 14:55 Cloudy 30 -1 21 -6 69 69 N 22 35 30.36 1028 7 11.26538 N/A
3:15 pm 15:15 Cloudy 30 -1 21 -6 69 69 N 16 26 30.36 1028 7 11.26538 N/A
3:35 pm 15:35 Cloudy 30 -1 19 -7 64 64 N 21 33 30.39 1029 10 16.0934 N/A
3:55 pm 15:55 Cloudy 30 -1 19 -7 64 64 N 20 31 30.39 1029 10 16.0934 N/A
4:16 pm 16:16 Cloudy 28 -2 18 -8 64 64 N 18 30 30.42 1030 10 16.0934 N/A
4:35 pm 16:35 Cloudy 28 -2 18 -8 64 64 N 22 35 30.42 1030 10 16.0934 N/A
4:55 pm 16:55 Cloudy 28 -2 18 -8 64 64 NNE 20 31 30.42 1030 10 16.0934 N/A
5:15 pm 17:15 Cloudy 28 -2 18 -8 64 64 N 21 33 30.48 1032 10 16.0934 N/A
5:35 pm 17:35 Cloudy 27 -3 18 -8 69 69 N 16 26 30.48 1032 10 16.0934 N/A
5:55 pm 17:55 Cloudy 27 -3 16 -9 64 64 NNE 18 30 30.5 1033 10 16.0934 N/A
6:15 pm 18:15 Cloudy 27 -3 14 -10 59 59 N 21 33 30.5 1033 10 16.0934 N/A
6:35 pm 18:35 Mostly Cloudy 27 -3 14 -10 59 59 N 18 30 30.5 1033 10 16.0934 N/A
6:55 pm 18:55 Cloudy 25 -4 14 -10 63 63 N 15 24 30.53 1034 10 16.0934 N/A
7:15 pm 19:15 Mostly Cloudy 25 -4 12 -11 59 59 N 17 28 30.53 1034 10 16.0934 N/A
7:35 pm 19:35 Mostly Cloudy 25 -4 12 -11 59 59 N 16 26 30.56 1035 10 16.0934 N/A
7:55 pm 19:55 Mostly Cloudy 25 -4 12 -11 59 59 N 16 26 30.56 1035 10 16.0934 N/A
8:15 pm 20:15 Mostly Cloudy 25 -4 12 -11 59 59 N 13 20 30.56 1035 10 16.0934 N/A
8:36 pm 20:36 Mostly Cloudy 23 -5 12 -11 63 63 N 14 22 30.56 1035 10 16.0934 N/A
8:55 pm 20:55 Mostly Cloudy 23 -5 10 -12 58 58 N 16 26 30.59 1036 10 16.0934 N/A
9:15 pm 21:15 Mostly Cloudy 23 -5 10 -12 58 58 N 13 20 30.59 1036 10 16.0934 N/A
9:35 pm 21:35 Mostly Cloudy 23 -5 10 -12 58 58 N 13 20 30.59 1036 10 16.0934 N/A
9:55 pm 21:55 Mostly Cloudy 23 -5 10 -12 58 58 N 14 22 30.59 1036 10 16.0934 N/A
10:16 pm 22:16 Mostly Cloudy 23 -5 10 -12 58 58 NNE 16 26 30.59 1036 10 16.0934 N/A
10:35 pm 22:35 Mostly Cloudy 23 -5 10 -12 58 58 N 15 24 30.59 1036 10 16.0934 N/A
10:55 pm 22:55 Mostly Cloudy 21 -6 10 -12 63 63 NNE 13 20 30.59 1036 10 16.0934 N/A
11:15 pm 23:15 Mostly Cloudy 23 -5 9 -13 54 54 NNE 16 26 30.59 1036 10 16.0934 N/A
11:35 pm 23:35 Cloudy 21 -6 9 -13 58 58 NE 13 20 30.59 1036 10 16.0934 N/A
11:56 pm 23:56 Cloudy 21 -6 7 -14 54 54 NE 16 26 30.59 1036 10 16.0934 N/A

Powered by AerisWeather